www.pogodaiklimat.ru

Погода и климат >> Архив погоды >> Италия >> Roma


АРХИВ ПОГОДЫ в Roma

Время (UTC), дата Ветер
(напр.,м/с)
 
Видим.   Явления Облачность Т
(С)
Тd
(С)
f
(%)
Тe
(С)
Тes
(С)
Комфортность P
(гПа)
Po
(гПа)
Тmin
(С)
Tmax
(С)
R
(мм)
S
(см)
12 22.03 ЮЗ 4 15 км 8/8 300 м
[Sc Ci]
+16.5 +11.7 73 +16 +17 тепло 1015.6 1015.1
15 22.03 ЮЗ 4 20 км 8/8 660 м
[Cu hum Ac inh Cs]
+16.7 +11.2 70 +16 +17 тепло 1015.1 1014.6
18 22.03 Ю 2 15 км 3/0
[Ac As Cc]
+15.1 +11.9 81 +15 +15 тепло 1015.8 1015.3 +17.4
21 22.03 ЮВ 2 15 км 5/5 1300 м
[Sc Ac lent]
+13.9 +11.5 85 +13 +13 тепло 1016.8 1016.4
00 23.03 В 2 9000 м дымка 6/6 900 м
[Sc Ac lent]
+12.8 +11.5 92 +12 +12 тепло 1017.3 1016.8
03 23.03 ЮВ 3 15 км 6/6 600 м
[Sc]
+13.9 +12.3 90 +13 +13 тепло 1016.8 1016.4
06 23.03 ЮВ 3 15 км 6/6 600 м
[Sc]
+13.3 +11.1 87 +12 +12 тепло 1017.7 1017.2 +11.6
09 23.03 ЮВ 6 20 км 9/9 750 м
[Cu Sc Cs]
+16.7 +10.9 69 +16 +16 тепло 1019.0 1018.5
12 23.03 Ю 6 35 км 10/4 1200 м
[Sc diur, vesp Ac cuf Cs]
+17.7 +8.9 56 +17 +19 тепло 1019.0 1018.6
15 23.03 Ю 5 30 км 8/5 1050 м
[Sc diur, vesp Ac trans Ci fib]
+17.3 +10.2 63 +17 +18 тепло 1019.0 1018.5
18 23.03 Ю 3 20 км 6/0
[Ac trans Ci fib]
+14.7 +12.1 84 +14 +14 тепло 1019.7 1019.7 +18.5
21 23.03 В 2 20 км ясно +11.1 +9.1 87 +10 +10 по сезону 1020.6 1020.2
00 24.03 СВ 1 20 км ясно +8.3 +7.2 93 +8 +8 по сезону 1021.2 1020.7
03 24.03 СВ 2 15 км ясно +8.5 +7.7 95 +7 +7 по сезону 1020.8 1020.3
06 24.03 В 2 10 км 6/0
[Cs]
+10.0 +9.0 93 +9 +9 по сезону 1021.8 1021.3 +7.1
09 24.03 В 3 12 км 9/0
[Cs]
+17.7 +11.2 66 +18 +24 тепло 1022.5 1022.1
12 24.03 Ю 4 15 км 9/0
[Cs]
+19.5 +11.7 61 +21 +28 комфорт 1021.7 1021.2
15 24.03 ЮЗ 4 20 км 9/0
[Cs]
+17.1 +11.8 71 +17 +19 тепло 1021.4 1020.9
18 24.03 С 1 9000 м дымка 9/0
[Ac cast Cs]
+14.0 +12.0 88 +15 +15 тепло 1021.1 1020.6 +21.0
21 24.03 С 2 8000 м дымка ясно +9.8 +8.8 93 +9 +9 по сезону 1021.8 1021.3
00 25.03 СВ 2 10 км ясно +9.0 +8.1 94 +8 +8 по сезону 1020.9 1020.5
03 25.03 В 1 15 км 1/0
[Ac trans]
+8.8 +7.8 93 +8 +8 по сезону 1020.7 1020.2
06 25.03 В 3 9000 м дымка ясно +10.3 +8.3 87 +8 +9 по сезону 1021.2 1020.7 +7.3 0.2
09 25.03 Ю 3 15 км ясно +20.4 +10.6 53 +22 +31 комфорт 1021.6 1021.1
12 25.03 Ю 8 20 км 1/1 1050 м
[Cu hum]
+19.4 +10.1 55 +20 +22 тепло 1021.1 1020.6
15 25.03 ЮЗ 5 20 км ясно +18.1 +11.5 65 +18 +20 тепло 1019.4 1019.0
18 25.03 Ю 3 8000 м дымка 4/0
[Ac cuf Ci fib]
+15.2 +12.5 84 +14 +14 тепло 1019.9 1019.4 +21.8
21 25.03 ЮВ 3 8000 м слабый дождь 5/5 300 м
[Cu Sc Ac cuf]
+14.5 +12.1 86 +14 +14 тепло 1020.2 1019.7
00 26.03 С 1 15 км {дождь} 4/1 1200 м
[Cu hum Ci sp]
+11.7 +10.3 91 +11 +11 тепло 1020.0 1019.5 1
03 26.03 СВ 1 9000 м местами туман поземный {дождь} 4/4 450 м
[Cu hum Ac lent]
+8.2 +7.6 96 +7 +7 по сезону 1019.9 1019.5
06 26.03 ЮВ 1 9000 м местами туман поземный 3/0
[Ci]
+8.7 +8.2 97 +9 +10 по сезону 1020.2 1019.7 +5.7 1
09 26.03 С 5 9000 м {туман} 1/1 600 м
[Cu hum Ci]
+15.7 +9.0 64 +15 +20 тепло 1019.9 1019.4
12 26.03 З 7 60 км 4/4 750 м
[Cu hum]
+16.6 +8.9 60 +15 +18 по сезону 1019.0 1018.5
15 26.03 З 9 60 км 3/3 750 м
[Cu med, cong]
+15.1 +8.3 64 +13 +13 по сезону 1018.1 1017.6
18 26.03 СЗ 5 55 км 3/3 840 м
[Cu med, cong]
+13.4 +8.5 72 +11 +11 по сезону 1017.9 1017.4 +17.6
21 26.03 СЗ 4 50 км 9/0
[As op]
+12.6 +7.9 73 +11 +11 по сезону 1019.5 1019.0
00 27.03 С 2 50 км {дождь} 3/0
[Ci]
+8.4 +5.3 81 +7 +7 по сезону 1018.9 1018.4
03 27.03 С 1 50 км ясно +8.2 +4.7 79 +7 +7 по сезону 1018.0 1017.5
06 27.03 СВ 4 50 км 4/0
[Ac As]
+9.8 +4.1 68 +7 +8 по сезону 1018.2 1017.7 +6.7
09 27.03 СВ 6 50 км 6/5 1110 м
[Sc Ac As]
+13.6 +1.6 44 +12 +13 по сезону 1019.3 1018.9
12 27.03 Ю 3 5000 м слабый дождь {ливн. осадки} 9/9 750 м
[Cu med, cong]
+10.7 +6.1 73 +9 +10 холодно 1020.7 1020.2 3
15 27.03 Ю 3 50 км 6/6 900 м
[Cu med, cong Ac lent]
+13.6 +6.0 60 +13 +14 по сезону 1019.4 1018.9
18 27.03 З 2 55 км 3/0
[Ac trans]
+11.0 +6.7 75 +10 +10 по сезону 1020.5 1020.0 +15.5 5
21 27.03 СВ 3 55 км ясно +6.6 +4.4 86 +4 +4 холодно 1021.6 1021.1
00 28.03 СВ 3 55 км ясно +5.6 +0.7 71 +3 +3 прохладно 1022.2 1021.7
03 28.03 СВ 3 55 км ясно +4.0 -0.6 72 0 0 холодно 1021.9 1021.4
06 28.03 СВ 2 70 км ясно +5.8 -0.5 64 +4 +5 прохладно 1022.6 1022.1 +3.3
09 28.03 В 1 70 км ясно +14.4 +2.6 45 +15 +27 опасность
простуды
1023.6 1023.1
12 28.03 СЗ 2 60 км ясно +16.8 +2.1 37 +17 +30 опасность
простуды
1022.7 1022.3
15 28.03 З 5 60 км ясно +15.2 +4.6 49 +14 +17 по сезону 1022.2 1021.7
18 28.03 СЗ 4 60 км ясно +12.0 +6.2 68 +10 +10 по сезону 1022.7 1022.2 +17.3
21 28.03 В 1 40 км ясно +9.8 +3.0 63 +10 +10 по сезону 1023.6 1023.1
00 29.03 СВ 2 30 км ясно +5.6 +2.6 81 +4 +4 прохладно 1023.5 1023.0
03 29.03 В 2 30 км ясно +5.0 +2.2 82 +3 +3 прохладно 1022.8 1022.3
06 29.03 СВ 2 40 км ясно +5.7 +2.8 82 +3 +4 прохладно 1023.5 1023.0 +2.1
09 29.03 С 2 55 км ясно +15.8 +3.4 43 +16 +26 тепло 1023.9

 

Местоположение метеостанции Roma (Италия): широта 41.80 долгота 12.23 высота над уровнем моря 3 м.

В архиве по умолчанию представлена погода в Roma за последнюю неделю. Архивные данные за месяц целиком и за предыдущие месяцы, начиная с января 2011 года, Вы можете получить, выбрав интересующий диапазон дат из раскрывающегося списка и нажав кнопку "Ввод!".

Внимание! Время в таблицах - всемирное. Для получения местного времени необходимо прибавить поправку, которая в Roma равна 1 ч.

Смотрите также архив погоды в соседних городах и на ближайших метеорологических станциях:

Погода в Pratica di Mare (Италия) (25 км)
Погода в Vigna di Valle (Италия) (31 км)
Погода в Civitavecchia (Италия) (42 км)
Погода в Guidonia (Италия) (47 км)
Погода в Latina (Италия) (62 км)
Погода в Latina (Италия) (62 км)
Погода в Viterbo (Италия) (72 км)
Погода в Frosinone (Италия) (91 км)
Погода в Torre Olevola (Италия) (96 км)
Погода в Monte Terminillo (Италия) (97 км)

Пояснения к столбцам:

Ветер - указаны скорость ветра в м/с - средняя за 10 мин, порывы в срок и между сроками (в фигурных скобках) и направление, откуда дует ветер: С - северный, СВ - северо-восточный, В - восточный, ЮВ - юго-восточный, Ю - южный, ЮЗ - юго-западный, З - западный, СЗ - северо-западный.
Видимость - горизонтальная дальность видимости в метрах или километрах. При видимости от 1 до 10 км при отсутствии осадков обычно наблюдается дымка, при ухудшении видимости до 1 км и менее - туман. В сухую погоду видимость может ухудшаться дымом, пылью или мглою.
Явления - указаны атмосферные явления, наблюдавшиеся в срок или в последний час перед сроком; фигурными скобками обозначены явления, наблюдавшиеся между сроками (за 1-3 часа до срока); квадратными скобками обозначены град или гололедные отложения с указанием их диаметра в мм.
Облачность - указаны через наклонную черту общая и нижняя облачность в баллах и высота нижней границы облаков в метрах; квадратными скобками обозначены формы облаков: Ci - перистые, Cs - перисто-слоистые, Cc - перисто-кучевые, Ac - высококучевые, As - высокослоистые, Sc - слоисто-кучевые, Ns - слоисто-дождевые, Cu - кучевые, Cb - кучево-дождевые. Подробнее классификацию облаков см. в Атласе облаков (PDF).
T - Температура воздуха - температура, измеренная на высоте 2 м над землей.
Td - Температура точки росы - температура, при понижении до которой содержащийся в воздухе водяной пар достигнет насыщения.
f - Относительная влажность воздуха - влажноcть воздуха, измеренная на высоте 2 м над землей.
Te - Эффективная температура - температура, которую ощущает одетый по сезону человек в тени. Характеристика душности погоды. При расчете учитывается влияние влажности воздуха и скорости ветра на теплоощущения человека.
Tes - Эффективная температура на солнце - температура, которую ощущает человек, с поправкой на солнечный нагрев. Характеристика знойности погоды. Зависит от высоты солнца над горизонтом, облачности и скорости ветра. Ночью, в пасмурную погоду, а также при ветре 12 м/с и более поправка равна нулю.
P - Атмосферное давление - приведенное к уровню моря атмосферное давление.
Po - Атмосферное давление - измеренное на уровне метеостанции атмосферное давление.
Tmin - Минимальная температура - минимум температуры воздуха на высоте 2 м над землей.
Tmax - Максимальная температура - максимум температуры воздуха на высоте 2 м над землей.
R - Количество осадков - Количество выпавших осадков, мм. При наведении курсора мыши на число - период времени, за который выпало указанное количество осадков.
S - Снежный покров - Высота снежного покрова, см. При наведении курсора мыши на число - состояние снежного покрова и степень покрытия местности в баллах.